When you browse on this site, cookies collect data to enhance your experience and personalize the content and advertising you see.
Visit our Privacy Policy to learn more. By continuing to use the site, you agree to this use of cookies and data.
  • In Schweiz
  • Länderverzeichnis
  • Für 7 Tage
  • Wassertemperatur
  • Satellitenkarten
  • Wetterkarte
  • Widgets
  • user-avatar
    Anmelden

    Stündliche Wetter Kalgoorlie

    Heute, 19 Juni, Mittwoch

    Zeit Temperatur Niederschläge Wind Luftdruck Luftfeuchtigkeit
    00:00 +9°C° 0 mm 3 m/S 736 mmHg 58%
    01:00 +8°C° 0 mm 3 m/S 736 mmHg 59%
    02:00 +8°C° 0 mm 2 m/S 736 mmHg 62%
    03:00 +7°C° 0 mm 2 m/S 735 mmHg 62%
    04:00 +7°C° 0 mm 2 m/S 735 mmHg 62%
    05:00 +7°C° 0 mm 2 m/S 735 mmHg 63%
    06:00 +7°C° 0 mm 2 m/S 736 mmHg 62%
    07:00 +7°C° 0 mm 2 m/S 736 mmHg 61%
    08:00 +8°C° 0 mm 2 m/S 736 mmHg 60%
    09:00 +9°C° 0 mm 3 m/S 736 mmHg 55%
    10:00 +11°C° 0 mm 3 m/S 736 mmHg 49%
    11:00 +12°C° 0 mm 3 m/S 736 mmHg 43%
    12:00 +13°C° 0 mm 3 m/S 735 mmHg 40%
    13:00 +14°C° 0 mm 3 m/S 734 mmHg 36%
    14:00 +15°C° 0 mm 2 m/S 734 mmHg 33%
    15:00 +15°C° 0 mm 2 m/S 734 mmHg 35%
    16:00 +14°C° 0 mm 2 m/S 734 mmHg 36%
    17:00 +12°C° 0 mm 3 m/S 733 mmHg 38%
    18:00 +12°C° 0 mm 3 m/S 734 mmHg 40%
    19:00 +11°C° 0 mm 3 m/S 734 mmHg 41%
    20:00 +10°C° 0 mm 3 m/S 735 mmHg 43%
    21:00 +10°C° 0 mm 3 m/S 735 mmHg 44%
    22:00 +9°C° 0 mm 3 m/S 735 mmHg 45%
    23:00 +8°C° 0 mm 4 m/S 735 mmHg 46%

    Morgen, 20 Juni, Donnerstag

    Zeit Temperatur Niederschläge Wind Luftdruck Luftfeuchtigkeit
    00:00 +8°C° 0 mm 4 m/S 735 mmHg 47%
    01:00 +7°C° 0 mm 4 m/S 735 mmHg 49%
    02:00 +7°C° 0 mm 4 m/S 734 mmHg 50%
    03:00 +6°C° 0 mm 4 m/S 734 mmHg 51%
    04:00 +6°C° 0 mm 4 m/S 734 mmHg 53%
    05:00 +6°C° 0 mm 4 m/S 734 mmHg 55%
    06:00 +6°C° 0 mm 4 m/S 734 mmHg 55%
    07:00 +7°C° 0 mm 4 m/S 735 mmHg 55%
    08:00 +7°C° 0 mm 5 m/S 735 mmHg 55%
    09:00 +9°C° 0 mm 5 m/S 734 mmHg 50%
    10:00 +12°C° 0 mm 5 m/S 734 mmHg 45%
    11:00 +14°C° 0 mm 6 m/S 734 mmHg 40%
    12:00 +15°C° 0 mm 6 m/S 734 mmHg 39%
    13:00 +16°C° 0 mm 6 m/S 733 mmHg 39%
    14:00 +17°C° 0 mm 6 m/S 732 mmHg 38%
    15:00 +16°C° 0 mm 6 m/S 732 mmHg 40%
    16:00 +16°C° 0 mm 5 m/S 732 mmHg 43%
    17:00 +15°C° 0 mm 5 m/S 732 mmHg 45%
    18:00 +15°C° 0 mm 6 m/S 732 mmHg 46%
    19:00 +14°C° 0 mm 7 m/S 732 mmHg 47%
    20:00 +12°C° 0 mm 8 m/S 732 mmHg 48%
    21:00 +12°C° 0 mm 8 m/S 732 mmHg 48%
    22:00 +12°C° 0 mm 8 m/S 732 mmHg 48%
    23:00 +12°C° 0 mm 8 m/S 732 mmHg 47%

    übermorgen, 21 Juni, Freitag

    Zeit Temperatur Niederschläge Wind Luftdruck Luftfeuchtigkeit
    00:00 +11°C° 0 mm 8 m/S 732 mmHg 48%
    01:00 +11°C° 0 mm 8 m/S 732 mmHg 49%
    02:00 +11°C° 0 mm 8 m/S 731 mmHg 49%
    03:00 +11°C° 0 mm 7 m/S 731 mmHg 51%
    04:00 +11°C° 0 mm 6 m/S 731 mmHg 52%
    05:00 +11°C° 0 mm 6 m/S 731 mmHg 53%
    06:00 +11°C° 0 mm 6 m/S 731 mmHg 53%
    07:00 +12°C° 0 mm 5 m/S 731 mmHg 54%
    08:00 +12°C° 0 mm 5 m/S 731 mmHg 54%
    09:00 +14°C° 0 mm 6 m/S 731 mmHg 51%
    10:00 +16°C° 0 mm 6 m/S 731 mmHg 49%
    11:00 +17°C° 0 mm 7 m/S 731 mmHg 46%
    12:00 +20°C° 0.1 mm 7 m/S 730 mmHg 46%
    13:00 +21°C° 0.1 mm 6 m/S 730 mmHg 46%
    14:00 +22°C° 0.1 mm 6 m/S 729 mmHg 46%
    15:00 +21°C° 0 mm 5 m/S 729 mmHg 49%
    16:00 +21°C° 0 mm 4 m/S 729 mmHg 53%
    17:00 +20°C° 0 mm 3 m/S 729 mmHg 56%
    18:00 +19°C° 0 mm 3 m/S 729 mmHg 58%
    19:00 +18°C° 0 mm 3 m/S 730 mmHg 60%
    20:00 +17°C° 0 mm 3 m/S 730 mmHg 63%
    21:00 +17°C° 0 mm 4 m/S 730 mmHg 67%
    22:00 +15°C° 0 mm 5 m/S 730 mmHg 72%
    23:00 +15°C° 0 mm 5 m/S 730 mmHg 76%

    22 Juni, Samstag

    Zeit Temperatur Niederschläge Wind Luftdruck Luftfeuchtigkeit
    00:00 +15°C° 0 mm 6 m/S 730 mmHg 79%
    01:00 +14°C° 0 mm 7 m/S 730 mmHg 82%
    02:00 +14°C° 0 mm 7 m/S 729 mmHg 84%
    03:00 +14°C° 0 mm 7 m/S 730 mmHg 85%
    04:00 +14°C° 0 mm 7 m/S 730 mmHg 85%
    05:00 +13°C° 0 mm 6 m/S 730 mmHg 86%
    06:00 +14°C° 0 mm 6 m/S 730 mmHg 83%
    07:00 +14°C° 0 mm 6 m/S 730 mmHg 81%
    08:00 +14°C° 0 mm 6 m/S 730 mmHg 79%
    09:00 +16°C° 0 mm 8 m/S 730 mmHg 66%
    10:00 +17°C° 0 mm 9 m/S 730 mmHg 58%
    11:00 +19°C° 0 mm 9 m/S 730 mmHg 49%
    12:00 +19°C° 0 mm 10 m/S 729 mmHg 48%
    13:00 +21°C° 0 mm 10 m/S 728 mmHg 46%
    14:00 +21°C° 0 mm 10 m/S 728 mmHg 45%
    15:00 +21°C° 0 mm 9 m/S 728 mmHg 44%
    16:00 +20°C° 0 mm 7 m/S 728 mmHg 44%
    17:00 +20°C° 0 mm 6 m/S 728 mmHg 43%
    18:00 +20°C° 0 mm 7 m/S 728 mmHg 42%
    19:00 +18°C° 0 mm 7 m/S 728 mmHg 42%
    20:00 +18°C° 0 mm 8 m/S 727 mmHg 41%
    21:00 +18°C° 0 mm 9 m/S 727 mmHg 38%
    22:00 +18°C° 0 mm 10 m/S 727 mmHg 35%
    23:00 +18°C° 0 mm 10 m/S 727 mmHg 32%

    23 Juni, Sonntag

    Zeit Temperatur Niederschläge Wind Luftdruck Luftfeuchtigkeit
    00:00 +18°C° 0.1 mm 10 m/S 727 mmHg 37%
    01:00 +17°C° 0.1 mm 10 m/S 727 mmHg 41%
    02:00 +16°C° 0.1 mm 9 m/S 727 mmHg 45%
    03:00 +16°C° 0.3 mm 8 m/S 727 mmHg 53%
    04:00 +16°C° 0.3 mm 7 m/S 727 mmHg 60%
    05:00 +15°C° 0.3 mm 6 m/S 727 mmHg 68%
    06:00 +15°C° 0.1 mm 7 m/S 727 mmHg 69%
    07:00 +15°C° 0.1 mm 8 m/S 728 mmHg 69%
    08:00 +15°C° 0.1 mm 8 m/S 728 mmHg 70%
    09:00 +16°C° 0 mm 10 m/S 728 mmHg 71%
    10:00 +16°C° 0 mm 11 m/S 728 mmHg 73%
    11:00 +15°C° 0 mm 12 m/S 728 mmHg 74%
    12:00 +15°C° 0.1 mm 12 m/S 728 mmHg 73%
    13:00 +16°C° 0.1 mm 11 m/S 727 mmHg 72%
    14:00 +16°C° 0.1 mm 11 m/S 727 mmHg 71%
    15:00 +16°C° 0.1 mm 10 m/S 728 mmHg 71%
    16:00 +16°C° 0.1 mm 9 m/S 728 mmHg 72%
    17:00 +16°C° 0.1 mm 9 m/S 728 mmHg 73%
    18:00 +15°C° 0.1 mm 8 m/S 729 mmHg 76%
    19:00 +15°C° 0.1 mm 7 m/S 729 mmHg 79%
    20:00 +14°C° 0.1 mm 6 m/S 729 mmHg 82%
    21:00 +14°C° 0 mm 5 m/S 730 mmHg 82%
    22:00 +13°C° 0 mm 4 m/S 730 mmHg 83%
    23:00 +12°C° 0 mm 3 m/S 730 mmHg 84%

    24 Juni, Montag

    Zeit Temperatur Niederschläge Wind Luftdruck Luftfeuchtigkeit
    00:00 +12°C° 0 mm 3 m/S 731 mmHg 83%
    01:00 +12°C° 0 mm 3 m/S 731 mmHg 83%
    02:00 +11°C° 0 mm 3 m/S 731 mmHg 82%
    03:00 +11°C° 0 mm 3 m/S 731 mmHg 84%
    04:00 +10°C° 0 mm 2 m/S 732 mmHg 85%
    05:00 +10°C° 0 mm 2 m/S 732 mmHg 87%
    06:00 +10°C° 0 mm 2 m/S 732 mmHg 85%
    07:00 +12°C° 0 mm 2 m/S 733 mmHg 83%
    08:00 +12°C° 0 mm 2 m/S 733 mmHg 81%
    09:00 +13°C° 0 mm 3 m/S 734 mmHg 73%
    10:00 +14°C° 0 mm 3 m/S 734 mmHg 64%
    11:00 +17°C° 0 mm 3 m/S 734 mmHg 56%
    12:00 +18°C° 0 mm 3 m/S 733 mmHg 52%
    13:00 +18°C° 0 mm 4 m/S 733 mmHg 48%
    14:00 +19°C° 0 mm 4 m/S 733 mmHg 44%
    15:00 +18°C° 0 mm 3 m/S 733 mmHg 47%
    16:00 +17°C° 0 mm 2 m/S 733 mmHg 49%
    17:00 +17°C° 0 mm 2 m/S 733 mmHg 52%
    18:00 +16°C° 0 mm 1 m/S 734 mmHg 56%
    19:00 +15°C° 0 mm 1 m/S 734 mmHg 60%
    20:00 +13°C° 0 mm 0 m/S 734 mmHg 63%
    21:00 +14°C° 0 mm 1 m/S 734 mmHg 63%
    22:00 +14°C° 0 mm 1 m/S 734 mmHg 62%
    23:00 +14°C° 0 mm 2 m/S 734 mmHg 61%
    Mehr zeigen